Location: Azul
(36.7830°S, 59.8500°W)
Time: 18:43:22
(UTC-03:00)

First-Move - Pass Details

Date: 01 November 2021
Orbit: 575 x 664 km, 97.6° (Epoch: 07 December)

Event Time Altitude Azimuth Distance (km) Brightness Sun altitude
Rises 04:29:28 0° 22° (NNE) 2,946 ? -16.0°
Reaches altitude 10° 04:31:39 10° 25° (NNE) 2,056 ? -15.7°
Maximum altitude 04:36:06 61° 105° (ESE) 755 ? -14.9°
Drops below altitude 10° 04:40:40 10° 184° (S) 2,115 ? -14.1°
Sets 04:42:57 0° 187° (S) 3,039 ? -13.7°
